Hourly Weather Murzinka

Today, 27 November, Friday

Time Temperature Precipitation Wind Pressure Humidity
00:00 -3°C° 0.5 mm 6 mps 752 mmHg 95%
01:00 -2°C° 0.4 mm 5 mps 751 mmHg 95%
02:00 -1°C° 0.4 mm 5 mps 751 mmHg 96%
03:00 -1°C° 0 mm 4 mps 750 mmHg 96%
04:00 0°C° 0.1 mm 4 mps 750 mmHg 96%
05:00 0°C° 0.1 mm 4 mps 749 mmHg 96%
06:00 +1°C° 0.1 mm 3 mps 749 mmHg 96%
07:00 0°C° 0 mm 4 mps 749 mmHg 95%
08:00 0°C° 0 mm 4 mps 749 mmHg 95%
09:00 0°C° 0 mm 4 mps 749 mmHg 95%
10:00 0°C° 0 mm 4 mps 749 mmHg 92%
11:00 +1°C° 0 mm 5 mps 749 mmHg 90%
12:00 +1°C° 0 mm 5 mps 749 mmHg 87%
13:00 +1°C° 0 mm 5 mps 749 mmHg 86%
14:00 0°C° 0 mm 5 mps 749 mmHg 86%
15:00 0°C° 0 mm 5 mps 749 mmHg 85%
16:00 0°C° 0 mm 4 mps 749 mmHg 86%
17:00 0°C° 0 mm 4 mps 749 mmHg 87%
18:00 -1°C° 0 mm 4 mps 749 mmHg 88%
19:00 -1°C° 0 mm 4 mps 749 mmHg 88%
20:00 0°C° 0 mm 3 mps 750 mmHg 89%
21:00 0°C° 0 mm 3 mps 750 mmHg 89%
22:00 0°C° 0 mm 3 mps 750 mmHg 90%
23:00 0°C° 0 mm 3 mps 750 mmHg 92%

Tomorrow, 28 November, Saturday

Time Temperature Precipitation Wind Pressure Humidity
00:00 0°C° 0 mm 3 mps 751 mmHg 93%
01:00 0°C° 0.1 mm 3 mps 751 mmHg 94%
02:00 0°C° 0.1 mm 3 mps 751 mmHg 96%
03:00 0°C° 0.1 mm 3 mps 752 mmHg 98%
04:00 0°C° 0.2 mm 3 mps 752 mmHg 98%
05:00 +1°C° 0.2 mm 2 mps 752 mmHg 98%
06:00 +1°C° 0.2 mm 2 mps 752 mmHg 98%
07:00 +1°C° 0.4 mm 2 mps 752 mmHg 98%
08:00 +1°C° 0.4 mm 2 mps 753 mmHg 98%
09:00 +2°C° 0.4 mm 2 mps 753 mmHg 98%
10:00 +2°C° 0.2 mm 2 mps 753 mmHg 98%
11:00 +2°C° 0.2 mm 2 mps 754 mmHg 98%
12:00 +2°C° 0.2 mm 2 mps 754 mmHg 98%
13:00 +2°C° 0.1 mm 2 mps 755 mmHg 97%
14:00 +3°C° 0.1 mm 1 mps 755 mmHg 97%
15:00 +3°C° 0.1 mm 1 mps 755 mmHg 97%
16:00 +3°C° 0 mm 1 mps 756 mmHg 97%
17:00 +3°C° 0 mm 1 mps 756 mmHg 96%
18:00 +2°C° 0 mm 1 mps 756 mmHg 96%
19:00 +2°C° 0 mm 1 mps 756 mmHg 96%
20:00 +2°C° 0 mm 2 mps 757 mmHg 97%
21:00 +2°C° 0 mm 2 mps 757 mmHg 97%
22:00 +1°C° 0.1 mm 3 mps 757 mmHg 97%
23:00 +1°C° 0.1 mm 3 mps 758 mmHg 97%

Day after tomorrow, 29 November, Sunday

Time Temperature Precipitation Wind Pressure Humidity
00:00 0°C° 0.1 mm 4 mps 758 mmHg 97%
01:00 0°C° 0.3 mm 4 mps 758 mmHg 96%
02:00 +1°C° 0.3 mm 5 mps 758 mmHg 95%
03:00 +1°C° 0.3 mm 6 mps 759 mmHg 93%
04:00 -1°C° 0 mm 6 mps 759 mmHg 93%
05:00 -1°C° 0 mm 6 mps 759 mmHg 92%
06:00 -2°C° 0 mm 6 mps 759 mmHg 91%
07:00 -2°C° 0 mm 6 mps 759 mmHg 91%
08:00 -2°C° 0 mm 6 mps 760 mmHg 92%
09:00 -3°C° 0 mm 7 mps 760 mmHg 92%
10:00 -2°C° 0 mm 6 mps 761 mmHg 92%
11:00 -1°C° 0 mm 6 mps 761 mmHg 92%
12:00 -1°C° 0 mm 6 mps 761 mmHg 92%
13:00 +1°C° 0 mm 6 mps 761 mmHg 92%
14:00 +1°C° 0 mm 6 mps 761 mmHg 91%
15:00 +1°C° 0 mm 6 mps 761 mmHg 90%
16:00 +1°C° 0 mm 6 mps 761 mmHg 89%
17:00 0°C° 0 mm 7 mps 761 mmHg 88%
18:00 0°C° 0 mm 7 mps 761 mmHg 88%
19:00 0°C° 0 mm 7 mps 761 mmHg 87%
20:00 0°C° 0 mm 7 mps 761 mmHg 87%
21:00 0°C° 0 mm 7 mps 762 mmHg 87%
22:00 -1°C° 0 mm 7 mps 762 mmHg 86%
23:00 -1°C° 0 mm 7 mps 762 mmHg 84%

30 November, Monday

Time Temperature Precipitation Wind Pressure Humidity
00:00 -1°C° 0 mm 7 mps 762 mmHg 83%
01:00 -2°C° 0 mm 7 mps 762 mmHg 81%
02:00 -2°C° 0 mm 7 mps 762 mmHg 80%
03:00 -2°C° 0 mm 7 mps 762 mmHg 78%
04:00 -2°C° 0 mm 7 mps 762 mmHg 79%
05:00 -3°C° 0 mm 7 mps 762 mmHg 80%
06:00 -3°C° 0 mm 7 mps 762 mmHg 81%
07:00 -3°C° 0 mm 7 mps 762 mmHg 82%
08:00 -3°C° 0 mm 7 mps 763 mmHg 82%
09:00 -3°C° 0 mm 7 mps 763 mmHg 82%
10:00 -3°C° 0 mm 7 mps 763 mmHg 82%
11:00 -3°C° 0 mm 7 mps 763 mmHg 82%
12:00 -3°C° 0 mm 7 mps 763 mmHg 82%
13:00 -2°C° 0 mm 7 mps 763 mmHg 82%
14:00 -2°C° 0 mm 6 mps 763 mmHg 82%
15:00 -2°C° 0 mm 6 mps 763 mmHg 82%
16:00 -3°C° 0 mm 6 mps 763 mmHg 83%
17:00 -3°C° 0 mm 7 mps 763 mmHg 83%
18:00 -3°C° 0 mm 7 mps 763 mmHg 84%
19:00 -3°C° 0 mm 7 mps 763 mmHg 83%
20:00 -3°C° 0 mm 6 mps 763 mmHg 83%
21:00 -3°C° 0 mm 6 mps 764 mmHg 82%
22:00 -3°C° 0 mm 6 mps 764 mmHg 82%
23:00 -4°C° 0 mm 6 mps 763 mmHg 82%

1 December, Tuesday

Time Temperature Precipitation Wind Pressure Humidity
00:00 -4°C° 0 mm 6 mps 763 mmHg 82%
01:00 -4°C° 0 mm 5 mps 763 mmHg 82%
02:00 -4°C° 0 mm 5 mps 763 mmHg 81%
03:00 -4°C° 0 mm 5 mps 763 mmHg 80%
04:00 -4°C° 0 mm 5 mps 763 mmHg 79%
05:00 -4°C° 0 mm 5 mps 764 mmHg 78%
06:00 -4°C° 0 mm 5 mps 764 mmHg 77%
07:00 -5°C° 0 mm 5 mps 764 mmHg 76%
08:00 -5°C° 0 mm 5 mps 764 mmHg 74%
09:00 -5°C° 0 mm 5 mps 764 mmHg 72%
10:00 -4°C° 0 mm 5 mps 764 mmHg 70%
11:00 -4°C° 0 mm 5 mps 764 mmHg 68%
12:00 -4°C° 0 mm 5 mps 764 mmHg 65%
13:00 -4°C° 0 mm 5 mps 764 mmHg 65%
14:00 -3°C° 0 mm 4 mps 764 mmHg 66%
15:00 -3°C° 0 mm 4 mps 764 mmHg 66%
16:00 -3°C° 0 mm 4 mps 764 mmHg 67%
17:00 -3°C° 0 mm 4 mps 764 mmHg 68%
18:00 -4°C° 0 mm 4 mps 764 mmHg 68%
19:00 -4°C° 0 mm 4 mps 764 mmHg 68%
20:00 -4°C° 0 mm 4 mps 765 mmHg 68%
21:00 -4°C° 0 mm 4 mps 765 mmHg 68%
22:00 -4°C° 0 mm 4 mps 765 mmHg 68%
23:00 -4°C° 0 mm 4 mps 765 mmHg 69%

2 December, Wednesday

Time Temperature Precipitation Wind Pressure Humidity
00:00 -5°C° 0 mm 4 mps 765 mmHg 69%
01:00 -5°C° 0 mm 4 mps 765 mmHg 69%
02:00 -5°C° 0 mm 4 mps 765 mmHg 69%
03:00 -6°C° 0 mm 5 mps 765 mmHg 69%
04:00 -6°C° 0 mm 5 mps 765 mmHg 70%
05:00 -7°C° 0 mm 4 mps 765 mmHg 70%
06:00 -7°C° 0 mm 4 mps 765 mmHg 70%
07:00 -7°C° 0 mm 4 mps 765 mmHg 70%
08:00 -7°C° 0 mm 4 mps 766 mmHg 70%
09:00 -8°C° 0 mm 5 mps 766 mmHg 70%
10:00 -7°C° 0 mm 4 mps 766 mmHg 68%
11:00 -7°C° 0 mm 4 mps 766 mmHg 66%
12:00 -7°C° 0 mm 4 mps 766 mmHg 64%
13:00 -7°C° 0 mm 4 mps 766 mmHg 63%
14:00 -7°C° 0 mm 4 mps 766 mmHg 61%
15:00 -7°C° 0 mm 4 mps 766 mmHg 60%
16:00 -7°C° 0 mm 4 mps 766 mmHg 60%
17:00 -7°C° 0 mm 4 mps 766 mmHg 60%
18:00 -8°C° 0 mm 4 mps 766 mmHg 60%
19:00 -8°C° 0 mm 4 mps 766 mmHg 61%
20:00 -8°C° 0 mm 4 mps 767 mmHg 61%
21:00 -9°C° 0 mm 4 mps 767 mmHg 61%
22:00 -9°C° 0 mm 4 mps 767 mmHg 62%
23:00 -9°C° 0 mm 4 mps 767 mmHg 63%
Show more

We Need Your Consent

Meteoprog and our Service Providers may store and access personal data such as cookies, device identifiers or other similar technologies on your device and process such data to personalise content and ads, as well as provide social media features and to analyse the traffic.

  • Store and/or access information on your device

    Cookies, device identifiers or other information can be stored or accessed on your device for the purposes indicated above.

  • Personalised ads and content, ad and content measurement, audience insights, and products development

    Ads and content can be personalised based on a profile. More data can be added to better personalise ads and content. Ad and content performance can be measured. Insights about the audience who saw the ads and content can be derived. Such data can be used to develop or improve user’s experience, systems and software.

By clicking ‘I Agree’ you will allow the use of indicated cookies, device identifiers, web beacons or other similar technologies. Your settings can be changed in the browser on your device.

For certain purposes, legitimate interests may be relied on, rather than consent. You can read more about this in our Privacy and Cookie Policy.